Rbgn^[z[y[W
メイン
   新天体発見情報
     Comet C/2017 A1 (PANSTARRS)
投稿するにはまず登録を

スレッド表示 | 新しいものから 前のトピック | 次のトピック | 下へ
投稿者 スレッド
佐藤裕久
投稿日時: 2017-1-16 21:19
モデレータ
登録日: 2005-6-12
居住地: 日本
投稿: 1817
オンライン
Comet C/2017 A1 (PANSTARRS)

Richard Wainscoat、Eva Lilly、Rob WeryとMarco Micheliの通報によると、1月2日、Haleakalaにある
1.8-m Ritchey-Chretien Pan-STARRS1望遠鏡で得たw-バンド露出から彗星を発見した。
この彗星の発見画像は天体のバックグランドから著しい干渉があるが、それは明るく、拡散した核状集
光と北へ約 8"に延びる尾が見える。
1月2.38日-2.43日UT、この彗星は、HaleakalaにあるATLAS 0.5-m f/2.0 Schmidt望遠鏡で得られた画像
から18.9-19.3等で検出された。
小惑星センターのNEOCPとPCCP webpageに公表後、L. Buzzi、P. Concari、C. Cremaschini、S. Foglia、
G. GalliとM. Tombelli (iTelescope天文台, 0.15-m f/7 屈折望遠鏡, Siding Spring, 遠隔操作)や
佐藤英貴氏(東京都文京区, iTelescope天文台, 0.51-m f/6.8 アストログラフ+輝度フィルター, 
Siding Spring, 遠隔操作)らCCD位置観測者によって彗星状と観測された。

発見位置は次のとおり、

     2017 UT             R.A. (2000) Decl.       Mag.
     Jan.  2.33300    5 22 43.32   -24 40 38.4   19.6
           2.34334    5 22 42.77   -24 40 27.0   19.6

暫定放物線軌道要素と位置推算表は次のとおり、

Orbital elements:
    C/2017 A1 (PANSTARRS)
T 2017 May 17.67696 TT                                  MPCW
q   2.3296909            (2000.0)            P               Q
                   Peri.    1.79228     -0.51906417     -0.53240664
                   Node   120.14292     +0.77427069     -0.62425079
e   1.0            Incl.   50.64448     +0.36204597     +0.57171157
>From 53 observations 2017 Jan. 2-6.

Ephemeris:
    C/2017 A1 (PANSTARRS)
Date    TT    R. A. (2000) Decl.     Delta      r     Elong.  Phase   m1
2016 12 07    05 46 38.2 -29 41 15   2.2412  2.9335   126.3    15.7  19.4
...
2016 12 22    05 32 58.9 -27 29 07   2.1193  2.8393   128.6    15.7  19.2
...
2016 12 30    05 25 37.7 -25 36 16   2.0732  2.7911   128.3    16.1  19.0
...
2017 01 05    05 20 29.9 -23 52 36   2.0480  2.7560   127.2    16.5  19.0
2017 01 06    05 19 41.6 -23 33 49   2.0446  2.7503   126.9    16.6  18.9
2017 01 07    05 18 54.3 -23 14 38   2.0414  2.7446   126.7    16.7  18.9
...
2017 01 13    05 14 33.5 -21 11 23   2.0271  2.7108   124.7    17.3  18.9
...
2017 01 21    05 09 58.3 -18 07 59   2.0210  2.6674   121.2    18.4  18.8
...
2017 02 05    05 05 51.5 -11 43 38   2.0479  2.5916   112.6    20.6  18.7

(CBET 4340、MPEC 2017-A31)
スレッド表示 | 新しいものから 前のトピック | 次のトピック | トップ

投稿するにはまず登録を
 
© 1999-2013 Tsutomu Seki.